Weather History for KSZL - September, 2011

Change the Weather History Date:

Friday, September 23, 2011

  Actual Average Record
Temperature  
Mean Temperature 61 °F -  
Max Temperature 71 °F 75 °F 91 °F (2007)
Min Temperature 51 °F 53 °F 37 °F (2012)
Degree Days  
Heating Degree Days 4    
Growing Degree Days 11 (Base 50)    
Moisture  
Dew Point 52 °F    
Average Humidity 81    
Maximum Humidity 100    
Minimum Humidity 52    
Precipitation  
Precipitation 0.00 in - - ()
Sea Level Pressure  
Sea Level Pressure 30.06 in    
Wind  
Wind Speed 4 mph (NNE)    
Max Wind Speed 9 mph    
Max Gust Speed 16 mph    
Visibility 10 miles    
Events      
Averages and records for this station are not official NWS values.
T = Trace of Precipitation, MM = Missing Value Source: NWS Daily Summary

Daily Weather History Graph

Daily Weather History Graph

Search for Another Location

Airport or City:

Trip Planner

Search our weather history database for the weather conditions in past years. The results will help you decide how hot, cold, wet, or windy it might be!

Date:

Astronomy

Sep. 23, 2011 Rise Set
Actual Time 7:02 AM CDT 7:10 PM CDT
Civil Twilight 6:36 AM CDT 7:36 PM CDT
Nautical Twilight 6:04 AM CDT 8:07 PM CDT
Astronomical Twilight 5:33 AM CDT 8:38 PM CDT
Moon 2:32 AM CDT (9/23) 4:39 PM CDT (9/23)
Length of Visible Light 13h 00m
Length of Day
12h 07m
Waning Crescent, 19% of the Moon is Illuminated
Sep 23
Waning Crescent
Sep 27
New
Oct 3
First Quarter
Oct 11
Full
Oct 19
Last Quarter

Hourly Weather History & Observations

Time (CDT) Temp. Dew Point Humidity Pressure Visibility Wind Dir Wind Speed Gust Speed Precip Events Conditions
12:55 AM 52.2 °F 51.8 °F 99% 30.11 in 10.0 mi South 5.8 mph - N/A   Clear
1:55 AM 52.7 °F 52.5 °F 99% 30.11 in 10.0 mi SSW 8.1 mph - N/A   Scattered Clouds
2:55 AM 52.5 °F 52.5 °F 100% 30.11 in 10.0 mi SSW 4.6 mph - N/A   Mostly Cloudy
3:55 AM 52.0 °F 52.0 °F 100% 30.10 in 10.0 mi Calm Calm - N/A   Scattered Clouds
4:55 AM 52.2 °F 52.2 °F 100% 30.09 in 10.0 mi SSE 3.5 mph - N/A   Mostly Cloudy
5:55 AM 51.8 °F 51.8 °F 100% 30.09 in 10.0 mi South 5.8 mph - N/A   Mostly Cloudy
6:55 AM 51.8 °F 51.8 °F 100% 30.10 in 10.0 mi SSW 4.6 mph - N/A   Mostly Cloudy
7:55 AM 52.7 °F 52.7 °F 100% 30.11 in 10.0 mi Calm Calm - N/A   Mostly Cloudy
8:55 AM 55.4 °F 55.2 °F 99% 30.12 in 10.0 mi NNW 3.5 mph - N/A   Mostly Cloudy
9:55 AM 57.4 °F 54.9 °F 91% 30.12 in 10.0 mi Calm Calm - N/A   Mostly Cloudy
10:55 AM 61.9 °F 54.1 °F 76% 30.12 in 10.0 mi Calm Calm - N/A   Mostly Cloudy
11:55 AM 64.0 °F 53.8 °F 69% 30.10 in 10.0 mi Calm Calm - N/A   Scattered Clouds
12:55 PM 67.5 °F 53.6 °F 61% 30.08 in 10.0 mi Variable 5.8 mph - N/A   Scattered Clouds
1:55 PM 69.3 °F 52.0 °F 54% 30.05 in 10.0 mi West 9.2 mph 16.1 mph N/A   Mostly Cloudy
2:55 PM 69.3 °F 53.1 °F 56% 30.02 in 10.0 mi WNW 3.5 mph - N/A   Mostly Cloudy
3:55 PM 69.1 °F 52.7 °F 56% 30.00 in 10.0 mi Calm Calm - N/A   Mostly Cloudy
4:55 PM 71.4 °F 53.2 °F 53% 29.99 in 10.0 mi NNE 4.6 mph - N/A   Scattered Clouds
5:55 PM 70.7 °F 52.3 °F 52% 29.98 in 10.0 mi North 5.8 mph - N/A   Partly Cloudy
6:55 PM 64.6 °F 53.2 °F 67% 29.99 in 10.0 mi NNE 5.8 mph - N/A   Clear
7:55 PM 58.5 °F 52.3 °F 80% 29.99 in 10.0 mi NE 4.6 mph - N/A   Clear
8:55 PM 57.7 °F 52.2 °F 82% 30.00 in 10.0 mi ENE 4.6 mph - N/A   Scattered Clouds
9:55 PM 54.7 °F 52.0 °F 91% 30.01 in 10.0 mi NNE 6.9 mph - N/A   Partly Cloudy
10:55 PM 54.3 °F 47.5 °F 78% 30.01 in 10.0 mi NE 4.6 mph - N/A   Partly Cloudy
11:55 PM 52.5 °F 45.5 °F 77% 30.00 in 10.0 mi NE 4.6 mph - N/A   Clear